Flight Track Log - Related Links

Times and Time Zones

All times are in EDT time to prevent confusion due to time zone crossing. See the DAL240 flight status page for this flight to view local times or setup timezone preferences in your user account.

Time Position Orientation Groundspeed Altitude Reporting Facility
EDT Latitude Longitude Course Direction KTS MPH feet Rate Location/Type
04:19PM 33.6331 -84.3456 53° Northeast 458 527 3,200  Level Atlanta Center
04:20PM 33.6311 -84.2658 92° East 331 381 4,300 1,487 Climbing Atlanta Center
04:21PM 33.7647 -83.9534 54° Northeast  Level FlightAware Approximate
04:21PM 33.6333 -84.1667 88° East 292 336 6,000  Level Atlanta TRACON
04:22PM 33.8451 -83.8195 54° Northeast  Level FlightAware Approximate
04:22PM 33.6439 -84.0836 81° East 312 359 8,400  Level Atlanta Center
04:23PM 33.9321 -83.6919 53° Northeast  Level FlightAware Approximate
04:23PM 33.7025 -84.0114 46° Northeast 312 359 10,900  Level Atlanta Center
04:24PM 34.0146 -83.5596 53° Northeast  Level FlightAware Approximate
04:24PM 33.7586 -83.9364 48° Northeast 296 341 12,700  Level Atlanta Center
04:25PM 34.0970 -83.4270 53° Northeast  Level FlightAware Approximate
04:25PM 33.8192 -83.8614 46° Northeast 296 341 14,500  Level Atlanta Center
04:26PM 33.8794 -83.7786 49° Northeast 310 357 15,900 1,350 Climbing Atlanta Center
04:27PM 33.9419 -83.6908 49° Northeast 331 381 17,200 1,200 Climbing Atlanta Center
04:28PM 34.0042 -83.5928 53° Northeast 355 409 18,300 1,050 Climbing Atlanta Center
04:29PM 34.0706 -83.4897 52° Northeast 378 435 19,300 1,000 Climbing Atlanta Center
04:30PM 34.1431 -83.3711 54° Northeast 394 453 20,300 1,023 Climbing Atlanta Center
04:35PM 34.5919 -82.6529 54° Northeast 499 574 25,300 983 Climbing FlightAware ADS-B (KDZJ)
04:36PM 34.6879 -82.4965 53° Northeast 512 589 26,200 785 Climbing FlightAware ADS-B (KDZJ)
04:37PM 34.7758 -82.3524 53° Northeast 512 589 27,000 400 Climbing FlightAware ADS-B (KDZJ)
04:38PM 34.7883 -82.3342 53° Northeast 501 577 27,000 356 Level Atlanta Center
04:39PM 34.8719 -82.1906 55° Northeast 512 589 27,700 650 Climbing Atlanta Center
04:40PM 34.9614 -82.0492 52° Northeast 512 589 28,300 700 Climbing Atlanta Center
04:41PM 35.0467 -81.9025 55° Northeast 517 595 29,100 650 Climbing Atlanta Center
04:42PM 35.1272 -81.7508 57° Northeast 522 601 29,600 450 Climbing Atlanta Center
04:43PM 35.2100 -81.5958 57° Northeast 533 613 30,000 400 Climbing Atlanta Center
04:44PM 35.2922 -81.4383 57° Northeast 538 619 30,400 450 Climbing Atlanta Center
04:45PM 35.3742 -81.2778 58° Northeast 551 634 30,900 300 Climbing Atlanta Center
04:46PM 35.4581 -81.1167 57° Northeast 556 640 31,000 50 Climbing Atlanta Center
04:47PM 35.5439 -80.9556 57° Northeast 556 640 31,000  Level Atlanta Center
04:48PM 35.6253 -80.7967 58° Northeast 556 640 31,000  Level Atlanta Center
04:49PM 35.7086 -80.6322 58° Northeast 556 640 31,000  Level Atlanta Center
04:50PM 35.7936 -80.4700 57° Northeast 556 640 31,000  Level Atlanta Center
04:52PM 35.9519 -80.1594 58° Northeast 570 656 31,000  Level Washington Center
04:53PM 36.0331 -79.9997 58° Northeast 559 643 31,000  Level Washington Center
04:54PM 36.1225 -79.8400 55° Northeast 553 636 31,000  Level Washington Center
04:55PM 36.2156 -79.6803 54° Northeast 564 649 31,000  Level Washington Center
04:56PM 36.3111 -79.5050 56° Northeast 564 649 31,000  Level Washington Center
04:57PM 36.3908 -79.3617 55° Northeast 564 649 31,000  Level Washington Center
04:58PM 36.4814 -79.1983 55° Northeast 564 649 31,000  Level Washington Center
04:59PM 36.5736 -79.0447 53° Northeast 563 648 31,000  Level Washington Center
05:00PM 36.6617 -78.8856 55° Northeast 558 642 31,000  Level Washington Center
05:01PM 36.7561 -78.7056 57° Northeast 558 642 31,000 254 Level Washington Center
05:02PM 36.8369 -78.5633 55° Northeast 558 642 31,500 504 Climbing Washington Center
05:03PM 36.9308 -78.3903 56° Northeast 558 642 32,000 492 Climbing Washington Center
05:04PM 37.0114 -78.2450 55° Northeast 558 642 32,500 504 Climbing Washington Center
05:05PM 37.1253 -78.0925 47° Northeast 553 636 33,000 252 Climbing Washington Center
05:06PM 37.2383 -77.9658 42° Northeast 543 625 33,000  Level Washington Center
05:07PM 37.3492 -77.8361 43° Northeast 537 618 33,000  Level Washington Center
05:08PM 37.4581 -77.7031 44° Northeast 543 625 33,000  Level Washington Center
05:09PM 37.5689 -77.5725 43° Northeast 538 619 33,000  Level Washington Center
05:15PM 38.2525 -76.7833 41° Northeast 530 610 33,000  Level FlightAware ADS-B
05:16PM 38.2839 -76.7490 41° Northeast 531 611 33,000  Level FlightAware ADS-B
05:18PM 38.4794 -76.5341 40° Northeast 526 605 33,000  Level FlightAware ADS-B (KDAA)
05:19PM 38.6147 -76.3844 41° Northeast 526 605 33,000  Level FlightAware ADS-B (KDAA)
05:19PM 38.6693 -76.3239 41° Northeast 525 604 33,000  Level FlightAware ADS-B (KDAA)
05:19PM 38.7118 -76.2766 41° Northeast 523 602 33,000  Level FlightAware ADS-B (KDAA)
05:20PM 38.7752 -76.2059 41° Northeast 523 602 33,000  Level FlightAware ADS-B (KDAA)
05:20PM 38.7805 -76.2000 41° Northeast 522 601 33,000  Level FlightAware ADS-B (KDAA)
05:22PM 38.9535 -76.0064 41° Northeast 514 592 33,000 186 Level FlightAware ADS-B
05:22PM 39.0172 -75.9347 41° Northeast 516 594 33,400 558 Climbing FlightAware ADS-B
05:23PM 39.1097 -75.8304 41° Northeast 517 595 33,800 643 Climbing FlightAware ADS-B
05:24PM 39.1712 -75.7607 42° Northeast 515 593 34,300 706 Climbing FlightAware ADS-B
05:24PM 39.2206 -75.7048 41° Northeast 514 592 34,600 364 Climbing FlightAware ADS-B
05:25PM 39.2494 -75.6722 42° Northeast 519 597 34,700 324 Climbing FlightAware ADS-B
05:25PM 39.3366 -75.5730 42° Northeast 522 601 35,000 234 Climbing FlightAware ADS-B
05:26PM 39.4021 -75.4981 42° Northeast 523 602 35,000  Level FlightAware ADS-B
05:27PM 39.4808 -75.4078 42° Northeast 515 593 35,000  Level FlightAware ADS-B
05:27PM 39.5584 -75.3187 42° Northeast 514 592 35,000  Level FlightAware ADS-B
05:28PM 39.6166 -75.2517 42° Northeast 514 592 35,000  Level FlightAware ADS-B
05:28PM 39.6856 -75.1720 42° Northeast 514 592 35,000  Level FlightAware ADS-B
05:29PM 39.7564 -75.0899 42° Northeast 512 589 35,000  Level FlightAware ADS-B
05:30PM 39.8034 -75.0352 42° Northeast 509 586 35,000  Level FlightAware ADS-B
05:31PM 39.8734 -74.9539 42° Northeast 510 587 35,000  Level FlightAware ADS-B
05:31PM 39.9612 -74.8392 48° Northeast 520 598 35,000  Level FlightAware ADS-B
05:32PM 40.0191 -74.7568 47° Northeast 519 597 35,000  Level FlightAware ADS-B
05:32PM 40.0847 -74.6490 63° Northeast 541 623 35,000  Level FlightAware ADS-B
05:33PM 40.1195 -74.5372 69° East 546 628 35,000  Level FlightAware ADS-B (KPHL)
05:34PM 40.1344 -74.4872 69° East 538 619 35,000  Level Boston Center
05:35PM 40.2042 -74.2661 68° East 542 624 35,000  Level New York Center
05:36PM 40.2617 -74.0858 67° East 538 619 35,000  Level New York Center
05:37PM 40.3300 -73.8656 68° East 546 628 35,000  Level New York Center
05:38PM 40.3819 -73.6958 68° East 541 623 35,000  Level New York Center
05:39PM 40.4383 -73.5114 68° East 545 627 35,000  Level New York Center
05:45PM 40.7801 -72.3729 69° East 562 647 35,000  Level FlightAware ADS-B (SBBR / BSB)
05:46PM 40.8228 -72.2263 69° East 560 644 35,000  Level FlightAware ADS-B (SBBR / BSB)
05:47PM 40.8596 -72.1000 69° East 559 643 35,000  Level FlightAware ADS-B (SBBR / BSB)
05:47PM 40.9228 -71.8813 69° East 549 632 35,000  Level FlightAware ADS-B (SBBR / BSB)
05:48PM 40.9521 -71.7794 69° East 544 626 35,000  Level FlightAware ADS-B (SBBR / BSB)
05:48PM 40.9851 -71.6645 69° East 546 628 35,000  Level FlightAware ADS-B (SBBR / BSB)
05:49PM 41.0169 -71.5528 70° East 544 626 35,000  Level FlightAware ADS-B (SBBR / BSB)
05:50PM 41.0864 -71.3066 71° East 526 605 35,000  Level FlightAware ADS-B (KASH)
05:51PM 41.1120 -71.2154 71° East 527 606 35,000  Level FlightAware ADS-B (KASH)
05:51PM 41.1378 -71.1235 71° East 528 608 35,000  Level FlightAware ADS-B (KASH)
05:52PM 41.1562 -71.0573 70° East 531 611 35,000  Level FlightAware ADS-B (SBBR / BSB)
05:52PM 41.1887 -70.9407 71° East 529 609 35,000  Level FlightAware ADS-B (KASH)
05:53PM 41.2180 -70.8350 70° East 530 610 35,000  Level FlightAware ADS-B (SBBR / BSB)
05:54PM 41.2623 -70.6740 70° East 532 612 35,000  Level FlightAware ADS-B (KASH)
05:55PM 41.3026 -70.5268 70° East 534 615 35,000  Level FlightAware ADS-B (ESTA / AGH)
05:55PM 41.3326 -70.4166 70° East 535 616 35,000  Level FlightAware ADS-B (KASH)
05:56PM 41.3793 -70.2442 70° East 533 613 35,000  Level FlightAware ADS-B (KASH)
05:57PM 41.4378 -70.0265 70° East 534 615 35,000  Level FlightAware ADS-B (KASH)
05:57PM 41.4437 -70.0043 70° East 535 616 35,000  Level FlightAware ADS-B (KASH)
05:58PM 41.4756 -69.8845 71° East 536 617 35,000  Level FlightAware ADS-B (KASH)
05:59PM 41.5088 -69.7592 71° East 538 619 35,000  Level FlightAware ADS-B (ESTA / AGH)
06:00PM 41.5588 -69.5695 71° East 537 618 35,000  Level FlightAware ADS-B (ESTA / AGH)
06:00PM 41.5839 -69.4734 71° East 537 618 35,000  Level FlightAware ADS-B (KASH)
06:01PM 41.6066 -69.3860 71° East 535 616 35,000  Level FlightAware ADS-B (ESTA / AGH)
06:02PM 41.6557 -69.1971 71° East 533 613 35,000  Level FlightAware ADS-B (ESTA / AGH)
06:02PM 41.6606 -69.1784 72° East 532 612 35,000  Level FlightAware ADS-B (KASH)
06:03PM 41.6925 -69.0546 71° East 531 611 35,000  Level FlightAware ADS-B
06:03PM 41.7066 -68.9994 71° East 527 606 35,000  Level FlightAware ADS-B
06:05PM 41.7590 -68.7938 71° East 527 606 35,000  Level FlightAware ADS-B
06:05PM 41.8152 -68.5718 71° East 526 605 35,000  Level FlightAware ADS-B
06:07PM 41.8604 -68.3915 72° East 523 602 35,000  Level FlightAware ADS-B
06:07PM 41.9055 -68.2104 72° East 523 602 35,000  Level FlightAware ADS-B
06:08PM 41.9351 -68.0906 72° East 523 602 35,000  Level FlightAware ADS-B
06:08PM 41.9631 -67.9771 72° East 524 603 35,000  Level FlightAware ADS-B
06:09PM 41.9879 -67.8755 72° East 526 605 35,000  Level FlightAware ADS-B
06:10PM 42.0159 -67.7606 72° East 526 605 35,000  Level FlightAware ADS-B
06:10PM 42.0463 -67.6350 72° East 527 606 35,000  Level FlightAware ADS-B
06:13PM 42.1795 -67.0772 72° East 523 602 35,000  Level FlightAware ADS-B
06:14PM 42.2032 -66.9822 70° East 521 600 35,000  Level FlightAware ADS-B
06:14PM 42.2313 -66.8906 67° East 518 596 35,000  Level FlightAware ADS-B
06:15PM 42.2579 -66.8063 67° East 518 596 35,000  Level FlightAware ADS-B
06:15PM 42.2838 -66.7235 67° East 519 597 35,000  Level FlightAware ADS-B
06:16PM 42.3204 -66.6055 67° East 520 598 35,000  Level FlightAware ADS-B
06:16PM 42.3500 -66.5100 68° East 521 600 35,000  Level FlightAware ADS-B
06:17PM 42.3798 -66.4127 68° East 519 597 35,000  Level FlightAware ADS-B
06:17PM 42.4101 -66.3135 68° East 519 597 35,000  Level FlightAware ADS-B
06:18PM 42.4420 -66.2086 68° East 519 597 35,000  Level FlightAware ADS-B
06:19PM 42.4682 -66.1224 68° East 520 598 35,000  Level FlightAware ADS-B
06:19PM 42.4965 -66.0288 68° East 521 600 35,000  Level FlightAware ADS-B
06:20PM 42.5204 -65.9497 68° East 520 598 35,000  Level FlightAware ADS-B
06:20PM 42.5618 -65.8122 68° East 521 600 35,000  Level FlightAware ADS-B
06:21PM 42.5892 -65.7202 68° East 521 600 35,000  Level FlightAware ADS-B
06:21PM 42.6193 -65.6193 68° East 522 601 35,000  Level FlightAware ADS-B
06:22PM 42.6595 -65.4842 68° East 521 600 35,000  Level FlightAware ADS-B
06:23PM 42.6884 -65.3863 68° East 522 601 35,000  Level FlightAware ADS-B
06:23PM 42.7244 -65.2636 68° East 522 601 35,000  Level FlightAware ADS-B
06:24PM 42.7496 -65.1773 69° East 520 598 35,000  Level FlightAware ADS-B
06:24PM 42.7867 -65.0499 68° East 519 597 35,000  Level FlightAware ADS-B
06:25PM 42.8214 -64.9306 69° East 519 597 35,000  Level FlightAware ADS-B
06:26PM 42.8479 -64.8390 69° East 520 598 35,000  Level FlightAware ADS-B
06:26PM 42.8791 -64.7307 69° East 520 598 35,000  Level FlightAware ADS-B
06:27PM 42.9073 -64.6322 69° East 519 597 35,000  Level FlightAware ADS-B
06:27PM 42.9434 -64.5058 69° East 522 601 35,000  Level FlightAware ADS-B
06:28PM 42.9696 -64.4134 69° East 523 602 35,000  Level FlightAware ADS-B
06:29PM 43.0050 -64.2887 69° East 522 601 35,000  Level FlightAware ADS-B
06:29PM 43.0285 -64.2049 69° East 522 601 35,000  Level FlightAware ADS-B
06:30PM 43.0624 -64.0840 69° East 522 601 35,000  Level FlightAware ADS-B
06:30PM 43.0882 -63.9914 69° East 523 602 35,000  Level FlightAware ADS-B
06:31PM 43.1170 -63.8884 69° East 522 601 35,000  Level FlightAware ADS-B
06:32PM 43.1500 -63.7167 69° East 510 587 35,000  Level Moncton Center
06:33PM 43.2000 -63.5000 72° East 520 598 35,000  Level Moncton Center
06:34PM 43.2500 -63.3167 69° East 520 598 35,000  Level Moncton Center
06:35PM 43.3000 -63.1333 69° East 520 598 35,000  Level Moncton Center
06:36PM 43.3667 -62.9500 63° Northeast 520 598 35,000  Level Moncton Center
06:37PM 43.4000 -62.8000 73° East 530 610 35,000  Level Gander Center
06:38PM 43.4333 -62.6167 76° East 520 598 35,000  Level Gander Center
06:39PM 43.4833 -62.4333 69° East 530 610 35,000  Level Gander Center
06:40PM 43.5333 -62.2500 69° East 520 598 35,000  Level Gander Center
06:41PM 43.6000 -62.0667 63° Northeast 530 610 35,000  Level Gander Center
06:42PM 43.6500 -61.8500 72° East 520 598 35,000  Level Gander Center
06:43PM 43.7000 -61.6667 69° East 530 610 35,000  Level Gander Center
06:44PM 43.7500 -61.4667 71° East 530 610 35,000  Level Gander Center
06:45PM 43.7833 -61.2833 76° East 530 610 35,000  Level Gander Center
06:46PM 43.8333 -61.0667 72° East 530 610 35,000  Level Moncton Center
06:47PM 43.9000 -60.8500 67° East 520 598 35,000  Level Moncton Center
06:48PM 43.9333 -60.6833 74° East 520 598 35,000  Level Moncton Center
06:49PM 43.9667 -60.5167 74° East 530 610 35,000  Level Gander Center
06:50PM 44.0000 -60.3333 76° East 520 598 35,000  Level Gander Center
06:51PM 44.0500 -60.1167 72° East 530 610 35,000  Level Gander Center
06:52PM 44.1000 -59.9333 69° East 530 610 35,000  Level Gander Center
06:53PM 44.1500 -59.7500 69° East 530 610 35,000  Level Gander Center
06:54PM 44.2167 -59.5000 70° East 520 598 35,000  Level Moncton Center
06:55PM 44.2500 -59.3500 73° East 530 610 35,000  Level Gander Center
06:56PM 44.3000 -59.1167 73° East 530 610 35,000 45 Level Moncton Center
06:57PM 44.3333 -58.9333 76° East 520 598 35,100 400 Climbing Moncton Center
06:58PM 44.3833 -58.7333 71° East 520 598 35,800 650 Climbing Moncton Center
06:59PM 44.4167 -58.5500 76° East 520 598 36,400 505 Climbing Moncton Center
07:00PM 44.4500 -58.3833 74° East 520 598 36,700 336 Climbing Gander Center
07:01PM 44.5000 -58.2000 69° East 530 610 37,000 150 Climbing Gander Center
07:02PM 44.5500 -57.9833 72° East 530 610 37,000  Level Gander Center
07:03PM 44.5833 -57.8000 76° East 530 610 37,000  Level Gander Center
07:04PM 44.6333 -57.5833 72° East 530 610 37,000  Level Gander Center
07:05PM 44.6667 -57.3833 77° East 530 610 37,000  Level Gander Center
07:06PM 44.7167 -57.2000 69° East 530 610 37,000  Level Gander Center
07:07PM 44.7667 -57.0167 69° East 530 610 37,000  Level Gander Center
07:08PM 44.7833 -56.8000 84° East 530 610 37,000  Level Gander Center
07:09PM 44.8333 -56.6000 71° East 530 610 37,000  Level Gander Center
07:10PM 44.8667 -56.4167 76° East 540 621 37,000  Level Gander Center
07:11PM 44.9000 -56.2000 78° East 530 610 37,000  Level Gander Center
07:12PM 44.9667 -55.9500 69° East 530 610 37,000  Level Moncton Center
07:13PM 45.0000 -55.7500 77° East 520 598 37,000  Level Moncton Center
07:14PM 45.0333 -55.6000 72° East 530 610 37,000  Level Gander Center
07:15PM 45.0667 -55.4000 77° East 530 610 37,000  Level Gander Center
07:16PM 45.1000 -55.1833 78° East 530 610 37,000  Level Gander Center
07:17PM 45.1500 -54.9833 70° East 530 610 37,000  Level Gander Center
07:18PM 45.1833 -54.8000 75° East 530 610 37,000  Level Gander Center
07:19PM 45.2333 -54.5500 74° East 530 610 37,000  Level Moncton Center
07:20PM 45.2667 -54.3500 77° East 520 598 37,000  Level Moncton Center
07:21PM 45.3000 -54.1333 78° East 530 610 37,000  Level Moncton Center
07:22PM 45.3333 -53.9500 75° East 530 610 37,000  Level Moncton Center
07:23PM 45.3833 -53.7333 72° East 530 610 37,000  Level Moncton Center
07:24PM 45.4000 -53.5833 81° East 540 621 37,000  Level Gander Center
07:25PM 45.4333 -53.3667 78° East 520 598 37,000  Level Gander Center
07:26PM 45.4667 -53.1667 77° East 530 610 37,000  Level Gander Center
07:27PM 45.5167 -52.9667 70° East 530 610 37,000  Level Gander Center
07:28PM 45.5500 -52.6667 81° East 530 610 37,000  Level Gander Center
07:29PM 45.5833 -52.5500 68° East 530 610 37,000  Level Gander Center
07:30PM 45.6167 -52.3500 77° East 530 610 37,000  Level Gander Center
07:31PM 45.6500 -52.1500 77° East 530 610 37,000  Level Gander Center
07:32PM 45.6833 -51.9333 78° East 530 610 37,000  Level Gander Center
07:33PM 45.7167 -51.7333 77° East 520 598 37,000  Level Gander Center
07:34PM 45.7500 -51.5333 76° East 520 598 37,000  Level Gander Center
07:35PM 45.7833 -51.2833 79° East 520 598 37,000  Level Moncton Center
07:36PM 45.8167 -51.0500 78° East 530 610 37,000  Level Gander Center
07:37PM 45.8333 -50.9167 80° East 520 598 37,000  Level Gander Center
07:38PM 45.8667 -50.7167 76° East 530 610 37,000  Level Gander Center
07:39PM 45.9000 -50.5167 76° East 530 610 37,000  Level Gander Center
07:40PM 45.9333 -50.3167 76° East 530 610 37,000  Level Gander Center
07:41PM 45.9500 -50.1000 84° East 530 610 37,000  Level Gander Center
07:42PM 45.9833 -49.9000 76° East 530 610 37,000  Level Gander Center
07:43PM 46.0500 -49.6833 66° East 530 610 37,000  Level Gander Center
07:44PM 46.1000 -49.4833 70° East 540 621 37,000  Level Gander Center
07:45PM 46.1333 -49.3000 75° East 540 621 37,000  Level Gander Center
07:46PM 46.1833 -49.0833 71° East 540 621 37,000  Level Gander Center
07:47PM 46.2500 -48.9000 62° Northeast 540 621 37,000  Level Gander Center
07:48PM 46.2833 -48.6833 77° East 550 633 37,000  Level Gander Center
07:49PM 46.3333 -48.4833 70° East 530 610 37,000  Level Gander Center
07:50PM 46.4000 -48.2667 66° East 530 610 37,000  Level Gander Center
07:51PM 46.4167 -48.0667 83° East 530 610 37,000  Level Gander Center
07:52PM 46.4833 -47.8667 64° Northeast 530 610 37,000  Level Gander Center
07:53PM 46.5500 -47.6000 70° East 520 598 37,000  Level Gander Center
07:54PM 46.5833 -47.3667 78° East 530 610 37,000  Level Gander Center
07:55PM 46.6167 -47.2500 67° East 530 610 37,000  Level Gander Center
07:56PM 46.6667 -47.0667 68° East 540 621 37,000  Level Gander Center
07:57PM 46.7000 -46.8500 77° East 530 610 37,000  Level Gander Center
07:58PM 46.7500 -46.6833 66° East 530 610 37,000 11 Level Gander Center
08:00PM 46.8348 -46.2964 72° East  Level FlightAware Approximate
08:07PM 47.1211 -44.9325 72° East  Level FlightAware Approximate
08:08PM 47.1607 -44.7365 73° East  Level FlightAware Approximate
08:09PM 47.1999 -44.5402 74° East  Level FlightAware Approximate
08:10PM 47.2388 -44.3436 74° East  Level FlightAware Approximate
08:11PM 47.2774 -44.1467 74° East  Level FlightAware Approximate
08:12PM 47.3156 -43.9495 74° East  Level FlightAware Approximate
08:13PM 47.3535 -43.7521 74° East  Level FlightAware Approximate
08:14PM 47.3910 -43.5543 74° East  Level FlightAware Approximate
08:15PM 47.4282 -43.3563 74° East  Level FlightAware Approximate
08:16PM 47.4651 -43.1580 75° East  Level FlightAware Approximate
08:17PM 47.5017 -42.9594 75° East  Level FlightAware Approximate
08:18PM 47.5378 -42.7606 75° East  Level FlightAware Approximate
08:19PM 47.5737 -42.5615 75° East  Level FlightAware Approximate
08:20PM 47.6092 -42.3621 75° East  Level FlightAware Approximate
08:21PM 47.6443 -42.1624 75° East  Level FlightAware Approximate
08:22PM 47.6791 -41.9625 75° East  Level FlightAware Approximate
08:23PM 47.7136 -41.7623 76° East  Level FlightAware Approximate
08:24PM 47.7477 -41.5618 76° East  Level FlightAware Approximate
08:25PM 47.7814 -41.3611 76° East  Level FlightAware Approximate
08:26PM 47.8148 -41.1601 76° East  Level FlightAware Approximate
08:27PM 47.8479 -40.9589 76° East  Level FlightAware Approximate
08:28PM 47.8806 -40.7574 76° East  Level FlightAware Approximate
08:29PM 47.9129 -40.5556 76° East  Level FlightAware Approximate
08:30PM 47.9449 -40.3536 77° East  Level FlightAware Approximate
08:31PM 47.9766 -40.1514 77° East  Level FlightAware Approximate
08:32PM 48.0073 -39.9489 78° East  Level FlightAware Approximate
08:33PM 48.0358 -39.7472 78° East  Level FlightAware Approximate
08:34PM 48.0640 -39.5454 78° East  Level FlightAware Approximate
08:35PM 48.0918 -39.3433 78° East  Level FlightAware Approximate
08:36PM 48.1193 -39.1410 78° East  Level FlightAware Approximate
08:37PM 48.1464 -38.9385 79° East  Level FlightAware Approximate
08:38PM 48.1732 -38.7358 79° East  Level FlightAware Approximate
08:39PM 48.1996 -38.5328 79° East  Level FlightAware Approximate
08:40PM 48.2256 -38.3297 79° East  Level FlightAware Approximate
08:41PM 48.2513 -38.1264 79° East  Level FlightAware Approximate
08:42PM 48.2766 -37.9228 79° East  Level FlightAware Approximate
08:43PM 48.3016 -37.7191 79° East  Level FlightAware Approximate
08:44PM 48.3262 -37.5151 80° East  Level FlightAware Approximate
08:45PM 48.3504 -37.3110 80° East  Level FlightAware Approximate
08:46PM 48.3743 -37.1066 80° East  Level FlightAware Approximate
08:47PM 48.3978 -36.9021 80° East  Level FlightAware Approximate
08:48PM 48.4210 -36.6974 80° East  Level FlightAware Approximate
08:49PM 48.4438 -36.4925 80° East  Level FlightAware Approximate
08:50PM 48.4662 -36.2874 81° East  Level FlightAware Approximate
08:51PM 48.4891 -36.0823 80° East  Level FlightAware Approximate
08:52PM 48.5116 -35.8771 81° East  Level FlightAware Approximate
08:53PM 48.5337 -35.6716 81° East  Level FlightAware Approximate
08:54PM 48.5555 -35.4660 81° East  Level FlightAware Approximate
08:55PM 48.5769 -35.2603 81° East  Level FlightAware Approximate
08:56PM 48.5979 -35.0543 81° East  Level FlightAware Approximate
08:57PM 48.6187 -34.8482 81° East  Level FlightAware Approximate
08:58PM 48.6392 -34.6419 81° East  Level FlightAware Approximate
08:59PM 48.6594 -34.4355 82° East  Level FlightAware Approximate
09:00PM 48.6791 -34.2290 82° East  Level FlightAware Approximate
09:01PM 48.6985 -34.0222 82° East  Level FlightAware Approximate
09:02PM 48.7175 -33.8153 82° East  Level FlightAware Approximate
09:03PM 48.7362 -33.6083 82° East  Level FlightAware Approximate
09:04PM 48.7545 -33.4011 82° East  Level FlightAware Approximate
09:05PM 48.7724 -33.1937 82° East  Level FlightAware Approximate
09:06PM 48.7899 -32.9862 83° East  Level FlightAware Approximate
09:07PM 48.8071 -32.7786 83° East  Level FlightAware Approximate
09:08PM 48.8239 -32.5708 83° East  Level FlightAware Approximate
09:09PM 48.8403 -32.3629 83° East  Level FlightAware Approximate
09:10PM 48.8563 -32.1548 83° East  Level FlightAware Approximate
09:11PM 48.8720 -31.9466 83° East  Level FlightAware Approximate
09:12PM 48.8873 -31.7383 84° East  Level FlightAware Approximate
09:13PM 48.9022 -31.5299 84° East  Level FlightAware Approximate
09:14PM 48.9168 -31.3213 84° East  Level FlightAware Approximate
09:15PM 48.9309 -31.1126 84° East  Level FlightAware Approximate
09:16PM 48.9447 -30.9038 84° East  Level FlightAware Approximate
09:17PM 48.9581 -30.6949 84° East  Level FlightAware Approximate
09:18PM 48.9712 -30.4858 84° East  Level FlightAware Approximate
09:19PM 48.9838 -30.2767 85° East  Level FlightAware Approximate
09:20PM 48.9961 -30.0675 85° East  Level FlightAware Approximate
09:21PM 49.0202 -29.8610 77° East  Level FlightAware Approximate
09:22PM 49.0497 -29.6556 78° East  Level FlightAware Approximate
09:23PM 49.0788 -29.4499 78° East  Level FlightAware Approximate
09:24PM 49.1076 -29.2440 78° East  Level FlightAware Approximate
09:25PM 49.1360 -29.0379 78° East  Level FlightAware Approximate
09:26PM 49.1640 -28.8316 78° East  Level FlightAware Approximate
09:27PM 49.1917 -28.6250 78° East  Level FlightAware Approximate
09:28PM 49.2190 -28.4182 79° East  Level FlightAware Approximate
09:29PM 49.2459 -28.2111 79° East  Level FlightAware Approximate
09:30PM 49.2725 -28.0039 79° East  Level FlightAware Approximate
09:31PM 49.2986 -27.7964 79° East  Level FlightAware Approximate
09:32PM 49.3245 -27.5887 79° East  Level FlightAware Approximate
09:33PM 49.3499 -27.3808 79° East  Level FlightAware Approximate
09:34PM 49.3750 -27.1726 79° East  Level FlightAware Approximate
09:35PM 49.3997 -26.9643 80° East  Level FlightAware Approximate
09:36PM 49.4240 -26.7557 80° East  Level FlightAware Approximate
09:37PM 49.4479 -26.5470 80° East  Level FlightAware Approximate
09:38PM 49.4715 -26.3380 80° East  Level FlightAware Approximate
09:39PM 49.4947 -26.1289 80° East  Level FlightAware Approximate
09:40PM 49.5175 -25.9195 80° East  Level FlightAware Approximate
09:41PM 49.5399 -25.7100 81° East  Level FlightAware Approximate
09:42PM 49.5620 -25.5002 81° East  Level FlightAware Approximate
09:43PM 49.5836 -25.2903 81° East  Level FlightAware Approximate
09:44PM 49.6049 -25.0802 81° East  Level FlightAware Approximate
09:45PM 49.6258 -24.8699 81° East  Level FlightAware Approximate
09:46PM 49.6464 -24.6594 81° East  Level FlightAware Approximate
09:47PM 49.6665 -24.4487 82° East  Level FlightAware Approximate
09:48PM 49.6863 -24.2379 82° East  Level FlightAware Approximate
09:49PM 49.7057 -24.0269 82° East  Level FlightAware Approximate
09:50PM 49.7247 -23.8158 82° East  Level FlightAware Approximate
09:51PM 49.7433 -23.6045 82° East  Level FlightAware Approximate
09:52PM 49.7615 -23.3930 82° East  Level FlightAware Approximate
09:53PM 49.7794 -23.1813 82° East  Level FlightAware Approximate
09:54PM 49.7968 -22.9695 83° East  Level FlightAware Approximate
09:55PM 49.8139 -22.7576 83° East  Level FlightAware Approximate
09:56PM 49.8306 -22.5455 83° East  Level FlightAware Approximate
09:57PM 49.8469 -22.3332 83° East  Level FlightAware Approximate
09:58PM 49.8628 -22.1209 83° East  Level FlightAware Approximate
09:59PM 49.8784 -21.9083 83° East  Level FlightAware Approximate
10:00PM 49.8935 -21.6957 84° East  Level FlightAware Approximate
10:01PM 49.9082 -21.4829 84° East  Level FlightAware Approximate
10:02PM 49.9226 -21.2700 84° East  Level FlightAware Approximate
10:03PM 49.9366 -21.0569 84° East  Level FlightAware Approximate
10:04PM 49.9501 -20.8438 84° East  Level FlightAware Approximate
10:05PM 49.9633 -20.6305 84° East  Level FlightAware Approximate
10:06PM 49.9761 -20.4171 85° East  Level FlightAware Approximate
10:07PM 49.9885 -20.2036 85° East  Level FlightAware Approximate
10:08PM 49.9997 -19.9900 93° East  Level FlightAware Approximate
10:09PM 49.9922 -19.7758 93° East  Level FlightAware Approximate
10:10PM 49.9843 -19.5618 93° East  Level FlightAware Approximate
10:11PM 49.9760 -19.3478 93° East  Level FlightAware Approximate
10:12PM 49.9673 -19.1339 94° East  Level FlightAware Approximate
10:13PM 49.9582 -18.9201 94° East  Level FlightAware Approximate
10:14PM 49.9489 -18.7063 94° East  Level FlightAware Approximate
10:15PM 49.9397 -18.4926 94° East  Level FlightAware Approximate
10:16PM 49.9301 -18.2789 94° East  Level FlightAware Approximate
10:17PM 49.9202 -18.0654 94° East  Level FlightAware Approximate
10:18PM 49.9098 -17.8519 94° East  Level FlightAware Approximate
10:19PM 49.8991 -17.6385 94° East  Level FlightAware Approximate
10:20PM 49.8879 -17.4252 95° East  Level FlightAware Approximate
10:21PM 49.8764 -17.2120 95° East  Level FlightAware Approximate
10:22PM 49.8645 -16.9990 95° East  Level FlightAware Approximate
10:23PM 49.8522 -16.7860 95° East  Level FlightAware Approximate
10:24PM 49.8395 -16.5731 95° East  Level FlightAware Approximate
10:25PM 49.8264 -16.3604 95° East  Level FlightAware Approximate
10:26PM 49.8129 -16.1478 96° East  Level FlightAware Approximate
10:27PM 49.7991 -15.9352 96° East  Level FlightAware Approximate
10:28PM 49.7848 -15.7228 96° East  Level FlightAware Approximate
10:29PM 49.7702 -15.5106 96° East  Level FlightAware Approximate
10:30PM 49.7551 -15.2985 96° East  Level FlightAware Approximate
10:31PM 49.7397 -15.0865 96° East  Level FlightAware Approximate
10:32PM 49.7237 -14.8747 97° East  Level FlightAware Approximate
10:33PM 49.7070 -14.6630 97° East  Level FlightAware Approximate
10:34PM 49.6899 -14.4515 97° East  Level FlightAware Approximate
10:35PM 49.6725 -14.2402 97° East  Level FlightAware Approximate
10:36PM 49.6547 -14.0290 97° East  Level FlightAware Approximate
10:37PM 49.6365 -13.8180 98° East  Level FlightAware Approximate
10:38PM 49.6179 -13.6071 98° East  Level FlightAware Approximate
10:39PM 49.5989 -13.3964 98° East  Level FlightAware Approximate
10:40PM 49.5795 -13.1859 98° East  Level FlightAware Approximate
10:41PM 49.5598 -12.9755 98° East  Level FlightAware Approximate
10:42PM 49.5397 -12.7653 98° East  Level FlightAware Approximate
10:43PM 49.5243 -12.5543 95° East  Level FlightAware Approximate
10:44PM 49.5080 -12.3435 98° East  Level FlightAware Approximate
10:45PM 49.4874 -12.1337 99° East  Level FlightAware Approximate
10:46PM 49.4664 -11.9240 99° East  Level FlightAware Approximate
10:47PM 49.4451 -11.7145 99° East  Level FlightAware Approximate
10:48PM 49.4234 -11.5051 99° East  Level FlightAware Approximate
10:49PM 49.4013 -11.2960 99° East  Level FlightAware Approximate
10:50PM 49.3788 -11.0871 99° East  Level FlightAware Approximate
10:51PM 49.3559 -10.8783 99° East  Level FlightAware Approximate
10:52PM 49.3327 -10.6698 100° East  Level FlightAware Approximate
10:53PM 49.3091 -10.4614 100° East  Level FlightAware Approximate
10:54PM 49.2851 -10.2532 100° East  Level FlightAware Approximate
10:55PM 49.2608 -10.0453 100° East  Level FlightAware Approximate
10:56PM 49.2361 -9.8375 100° East  Level FlightAware Approximate
10:57PM 49.2110 -9.6300 100° East  Level FlightAware Approximate
10:58PM 49.1855 -9.4227 101° East  Level FlightAware Approximate
10:58PM 49.1679 -8.9796 101° East 498 573 39,000  Level FlightAware UK
10:59PM 49.1499 -8.8765 105° East 498 573 39,000  Level FlightAware UK
10:59PM 49.1325 -8.7742 105° East 498 573 39,000  Level FlightAware UK
11:00PM 49.1167 -8.6735 103° East 498 573 39,000  Level FlightAware UK
11:00PM 49.1001 -8.5721 104° East 498 573 39,000  Level FlightAware UK
11:01PM 49.0821 -8.4699 105° East 498 573 39,000  Level FlightAware UK
11:01PM 49.0639 -8.3676 105° East 500 575 39,000  Level FlightAware UK
11:02PM 49.0467 -8.2664 105° East 500 575 39,000  Level FlightAware UK
11:02PM 49.0295 -8.1648 104° East 502 578 39,000  Level FlightAware UK
11:03PM 49.0131 -8.0627 104° East 504 580 39,000  Level FlightAware UK
11:03PM 49.0047 -7.9551 97° East 508 585 39,000  Level FlightAware UK
11:04PM 49.0012 -7.8470 93° East 512 589 39,000  Level FlightAware UK
11:04PM 49.0014 -7.7363 90° East 514 592 39,000  Level FlightAware UK
11:05PM 49.0037 -7.6290 88° East 514 592 39,000  Level FlightAware UK
11:05PM 49.0039 -7.5191 90° East 514 592 39,000  Level FlightAware UK
11:06PM 49.0037 -7.4112 90° East 506 582 39,000  Level FlightAware UK
11:06PM 48.9831 -7.3318 112° Southeast 492 566 39,000  Level FlightAware UK
11:07PM 48.9543 -7.2380 115° Southeast 490 564 39,000  Level FlightAware UK
11:07PM 48.9279 -7.1450 113° Southeast 492 566 39,000  Level FlightAware UK
11:08PM 48.8974 -7.0326 112° Southeast 494 568 39,000  Level FlightAware UK
11:08PM 48.8776 -6.9635 113° Southeast 494 568 39,000  Level FlightAware ADS-B (EGYM / MRH)
11:09PM 48.8430 -6.8414 113° Southeast 496 571 39,000  Level FlightAware UK
11:09PM 48.8179 -6.7566 114° Southeast 497 572 39,000  Level FlightAware ADS-B (EGYM / MRH)
11:10PM 48.7946 -6.6759 114° Southeast 498 573 39,000  Level FlightAware ADS-B (EGYM / MRH)
11:10PM 48.7611 -6.5612 114° Southeast 499 574 39,000  Level FlightAware ADS-B (EGYM / MRH)
11:11PM 48.7342 -6.4694 114° Southeast 499 574 39,000  Level FlightAware ADS-B (EGYM / MRH)
11:11PM 48.6974 -6.3436 114° Southeast 500 575 39,000  Level FlightAware UK
11:12PM 48.6922 -6.3270 114° Southeast 500 575 39,000  Level FlightAware ADS-B (EGYM / MRH)
11:12PM 48.6407 -6.1515 114° Southeast 500 575 39,000  Level FlightAware UK
11:13PM 48.6120 -6.0556 114° Southeast 498 573 39,000  Level FlightAware UK
11:13PM 48.5781 -5.9422 114° Southeast 500 575 39,000  Level FlightAware UK
11:14PM 48.5491 -5.8464 114° Southeast 500 575 39,000  Level FlightAware UK
11:15PM 48.5144 -5.7327 115° Southeast 500 575 39,000  Level FlightAware UK
11:15PM 48.4848 -5.6384 115° Southeast 502 578 39,000  Level FlightAware UK
11:16PM 48.4548 -5.5441 116° Southeast 504 580 39,000  Level FlightAware UK
11:16PM 48.4246 -5.4490 116° Southeast 504 580 39,000  Level FlightAware UK
11:17PM 48.3946 -5.3545 116° Southeast 504 580 39,000  Level FlightAware UK
11:17PM 48.3644 -5.2593 115° Southeast 506 582 39,000  Level FlightAware UK
11:18PM 48.3344 -5.1645 115° Southeast 506 582 39,000  Level FlightAware UK
11:18PM 48.3039 -5.0692 116° Southeast 508 585 39,000  Level FlightAware UK
11:19PM 48.2730 -4.9738 116° Southeast 508 585 39,000  Level FlightAware UK
11:19PM 48.2424 -4.8789 116° Southeast 506 582 39,000  Level FlightAware UK
11:20PM 48.2119 -4.7842 116° Southeast 502 578 39,000  Level FlightAware UK
11:20PM 48.2129 -4.7884 116° Southeast 500 575 39,000  Level FlightAware ADS-B (LFBU / ANG)
11:20PM 48.1757 -4.6745 116° Southeast 496 571 39,000  Level FlightAware ADS-B (LFBU / ANG)
11:21PM 48.1321 -4.5406 116° Southeast 487 560 39,000  Level FlightAware ADS-B (LFBU / ANG)
11:22PM 48.1009 -4.4454 116° Southeast 484 557 39,000  Level FlightAware ADS-B (LFBU / ANG)
11:22PM 48.0681 -4.3457 116° Southeast 485 558 39,000  Level FlightAware ADS-B (LFBU / ANG)
11:23PM 48.0379 -4.2543 116° Southeast 486 559 39,000  Level FlightAware ADS-B (LFBU / ANG)
11:23PM 48.0010 -4.1435 116° Southeast 485 558 39,000  Level FlightAware ADS-B (LERS / REU)
11:24PM 47.9635 -4.0306 117° Southeast 492 566 39,000  Level FlightAware ADS-B (LFBU / ANG)
11:24PM 47.9528 -3.9985 116° Southeast 487 560 39,000  Level FlightAware ADS-B (LERS / REU)
11:25PM 47.9179 -3.8945 117° Southeast 495 570 39,000  Level FlightAware ADS-B (LFBU / ANG)
11:25PM 47.8960 -3.8293 116° Southeast 493 567 39,000  Level FlightAware ADS-B (LERS / REU)
11:26PM 47.8557 -3.7101 117° Southeast 497 572 39,000  Level FlightAware ADS-B (LFBU / ANG)
11:26PM 47.8218 -3.6100 117° Southeast 499 574 39,000  Level FlightAware ADS-B (LERS / REU)
11:27PM 47.7838 -3.4982 117° Southeast 500 575 39,000  Level FlightAware ADS-B (LERS / REU)
11:27PM 47.7545 -3.4123 117° Southeast 502 578 39,000  Level FlightAware ADS-B (LFBU / ANG)
11:28PM 47.7094 -3.2808 117° Southeast 502 578 39,000  Level FlightAware ADS-B (LERS / REU)
11:28PM 47.6712 -3.1699 117° Southeast 502 578 39,000  Level FlightAware ADS-B (LERS / REU)
11:29PM 47.6318 -3.0563 117° Southeast 501 577 39,000  Level FlightAware ADS-B (LERS / REU)
11:30PM 47.5988 -2.9616 117° Southeast 499 574 39,000  Level FlightAware ADS-B (LFBU / ANG)
11:30PM 47.5569 -2.8416 118° Southeast 498 573 39,000  Level FlightAware ADS-B (EGJJ / JER)
11:31PM 47.5224 -2.7433 117° Southeast 499 574 39,000  Level FlightAware ADS-B (LFBU / ANG)
11:31PM 47.4842 -2.6345 117° Southeast 496 571 39,000  Level FlightAware ADS-B (LFBU / ANG)
11:32PM 47.4506 -2.5394 118° Southeast 495 570 39,000  Level FlightAware ADS-B (LFBU / ANG)
11:32PM 47.4189 -2.4496 118° Southeast 494 568 39,000  Level FlightAware ADS-B (LFBU / ANG)
11:33PM 47.3882 -2.3635 118° Southeast 493 567 39,000  Level FlightAware ADS-B (LFBU / ANG)
11:33PM 47.3540 -2.2674 118° Southeast 494 568 39,000  Level FlightAware ADS-B (LFBU / ANG)
11:34PM 47.3123 -2.1511 118° Southeast 494 568 39,000  Level FlightAware ADS-B (LFBU / ANG)
11:35PM 47.2803 -2.0619 118° Southeast 494 568 39,000  Level FlightAware ADS-B (LFBU / ANG)
11:35PM 47.2527 -1.9854 118° Southeast 494 568 39,000  Level FlightAware ADS-B (LFBU / ANG)
11:36PM 47.1917 -1.8173 118° Southeast 494 568 39,000  Level FlightAware ADS-B (LFBU / ANG)
11:37PM 47.1255 -1.6355 118° Southeast 494 568 39,000  Level FlightAware ADS-B (LFBU / ANG)
11:38PM 47.0878 -1.5332 118° Southeast 494 568 39,000  Level FlightAware ADS-B (LFBU / ANG)
11:38PM 47.0544 -1.4426 118° Southeast 495 570 39,000  Level FlightAware ADS-B (LFBU / ANG)
11:39PM 47.0226 -1.3564 118° Southeast 497 572 39,000  Level FlightAware ADS-B (LFBU / ANG)
11:39PM 46.9884 -1.2640 118° Southeast 498 573 39,000  Level FlightAware ADS-B (LFBU / ANG)
11:40PM 46.9690 -1.2119 119° Southeast 498 573 39,000  Level FlightAware ADS-B (LFBU / ANG)
11:41PM 46.8878 -0.9943 119° Southeast 499 574 39,000  Level FlightAware ADS-B (LFBU / ANG)
11:41PM 46.8546 -0.9062 119° Southeast 499 574 39,000  Level FlightAware ADS-B (LFBU / ANG)
11:42PM 46.8210 -0.8168 119° Southeast 499 574 39,000  Level FlightAware ADS-B (LFBU / ANG)
11:42PM 46.7859 -0.7240 119° Southeast 500 575 39,000  Level FlightAware ADS-B (LFBU / ANG)
11:43PM 46.7517 -0.6340 119° Southeast 500 575 39,000  Level FlightAware ADS-B (LFBU / ANG)
11:43PM 46.7205 -0.5432 115° Southeast 503 579 39,000  Level FlightAware ADS-B (LFBU / ANG)
11:44PM 46.6870 -0.4356 115° Southeast 505 581 39,000  Level FlightAware ADS-B (LFBU / ANG)
11:44PM 46.6572 -0.3426 115° Southeast 504 580 39,000  Level FlightAware ADS-B (LFBU / ANG)
11:45PM 46.6260 -0.2468 115° Southeast 506 582 39,000  Level FlightAware ADS-B (LFBU / ANG)
11:45PM 46.5921 -0.1435 116° Southeast 507 583 39,000  Level FlightAware ADS-B (LFBU / ANG)
11:46PM 46.5614 -0.0502 116° Southeast 509 586 39,000  Level FlightAware ADS-B (LFBU / ANG)
11:46PM 46.5313 0.0407 116° Southeast 509 586 39,000  Level FlightAware ADS-B (LFBU / ANG)
11:47PM 46.5001 0.1342 116° Southeast 509 586 39,000  Level FlightAware ADS-B (LFBU / ANG)
11:48PM 46.4606 0.2525 116° Southeast 509 586 39,000  Level FlightAware ADS-B (LFBU / ANG)
11:48PM 46.4352 0.3283 116° Southeast 508 585 39,000  Level FlightAware ADS-B (LFBU / ANG)
11:49PM 46.3950 0.4482 116° Southeast 508 585 39,000  Level FlightAware ADS-B (LFBU / ANG)
11:49PM 46.3528 0.5732 116° Southeast 510 587 39,000  Level FlightAware ADS-B (LFBU / ANG)
11:50PM 46.3103 0.6984 116° Southeast 511 588 39,000  Level FlightAware ADS-B (LFBU / ANG)
11:50PM 46.2785 0.7918 116° Southeast 511 588 39,000  Level FlightAware ADS-B (LFBU / ANG)
11:51PM 46.2449 0.8901 116° Southeast 511 588 39,000  Level FlightAware ADS-B (LFBU / ANG)
11:52PM 46.2107 0.9896 116° Southeast 510 587 39,000  Level FlightAware ADS-B (LFBU / ANG)
11:52PM 46.1761 1.0903 116° Southeast 510 587 39,000  Level FlightAware ADS-B (LFBU / ANG)
11:53PM 46.1429 1.1862 117° Southeast 511 588 39,000  Level FlightAware ADS-B (LFBU / ANG)
11:53PM 46.1106 1.2794 117° Southeast 511 588 39,000  Level FlightAware ADS-B (LFBU / ANG)
11:54PM 46.0782 1.3723 117° Southeast 511 588 39,000  Level FlightAware ADS-B (LFBU / ANG)
11:54PM 46.0481 1.4584 117° Southeast 510 587 39,000  Level FlightAware ADS-B (LFBU / ANG)
11:55PM 46.0159 1.5504 117° Southeast 510 587 39,000  Level FlightAware ADS-B (LFBU / ANG)
11:55PM 45.9823 1.6461 117° Southeast 510 587 39,000  Level FlightAware ADS-B (LFBU / ANG)
11:56PM 45.9501 1.7374 117° Southeast 509 586 39,000  Level FlightAware ADS-B (LFBU / ANG)
11:56PM 45.9182 1.8272 117° Southeast 511 588 39,000  Level FlightAware ADS-B (LFBU / ANG)
11:57PM 45.8854 1.9195 117° Southeast 509 586 39,000  Level FlightAware ADS-B (LFBU / ANG)
11:57PM 45.8532 2.0098 117° Southeast 509 586 39,000  Level FlightAware ADS-B (LFBU / ANG)
11:58PM 45.8187 2.1062 117° Southeast 509 586 39,000  Level FlightAware ADS-B (LFBU / ANG)
11:58PM 45.7821 2.2080 117° Southeast 508 585 39,000  Level FlightAware ADS-B (LFBU / ANG)
11:59PM 45.7500 2.2972 117° Southeast 507 583 39,000  Level FlightAware ADS-B (LFBU / ANG)
11:59PM 45.7126 2.4008 117° Southeast 508 585 39,000  Level FlightAware ADS-B (LFBU / ANG)
12:00AM 45.6828 2.4827 118° Southeast 508 585 39,000  Level FlightAware ADS-B (LFBU / ANG)
12:00AM 45.6461 2.5831 117° Southeast 510 587 39,000  Level FlightAware ADS-B (LFBU / ANG)
12:01AM 45.6137 2.6722 118° Southeast 511 588 39,000  Level FlightAware ADS-B (LFBU / ANG)
12:01AM 45.5837 2.7537 118° Southeast 511 588 39,000  Level FlightAware ADS-B (LFBU / ANG)
12:02AM 45.5363 2.8824 118° Southeast 510 587 39,000  Level FlightAware ADS-B (LFBU / ANG)
12:03AM 45.5019 2.9754 118° Southeast 509 586 39,000  Level FlightAware ADS-B (LFBU / ANG)
12:03AM 45.4461 3.1257 118° Southeast 510 587 39,000  Level FlightAware ADS-B (LFBU / ANG)
12:04AM 45.4028 3.2419 118° Southeast 510 587 39,000  Level FlightAware ADS-B (LFBU / ANG)
12:05AM 45.3674 3.3327 121° Southeast 512 589 39,000  Level FlightAware ADS-B (LFBU / ANG)
12:05AM 45.3328 3.4143 121° Southeast 511 588 39,000  Level FlightAware ADS-B (LFBU / ANG)
12:06AM 45.2760 3.5490 121° Southeast 510 587 39,000  Level FlightAware ADS-B (LFBU / ANG)
12:07AM 45.2224 3.6775 121° Southeast 510 587 39,000  Level FlightAware ADS-B (LFBU / ANG)
12:07AM 45.1851 3.7667 121° Southeast 511 588 39,000  Level FlightAware ADS-B (LFBU / ANG)
12:09AM 45.0651 4.0513 121° Southeast 515 593 39,000  Level FlightAware ADS-B (CYCD)
12:11AM 44.9057 4.4246 121° Southeast 509 586 39,000  Level FlightAware ADS-B (CYCD)
12:12AM 44.8417 4.5736 121° Southeast 508 585 39,000  Level FlightAware ADS-B (CYCD)
12:13AM 44.7765 4.7241 121° Southeast 505 581 39,000  Level FlightAware ADS-B (CYCD)
12:13AM 44.7226 4.8479 122° Southeast 503 579 39,000  Level FlightAware ADS-B (CYCD)
12:15AM 44.6118 5.1029 121° Southeast 498 573 39,000  Level FlightAware ADS-B (CYCD)
12:16AM 44.5635 5.2147 121° Southeast 499 574 39,000  Level FlightAware ADS-B (CYCD)
12:17AM 44.4750 5.4181 121° Southeast 504 580 39,000  Level FlightAware ADS-B (CYCD)
12:17AM 44.4354 5.5086 121° Southeast 504 580 39,000  Level FlightAware ADS-B (CYCD)
12:18AM 44.3717 5.6537 122° Southeast 502 578 39,000  Level FlightAware ADS-B (CYCD)
12:19AM 44.3326 5.7420 122° Southeast 499 574 39,000  Level FlightAware ADS-B (CYCD)
12:19AM 44.2857 5.8483 122° Southeast 499 574 39,000  Level FlightAware ADS-B (CYCD)
12:22AM 44.1114 6.2388 122° Southeast 497 572 39,000  Level FlightAware ADS-B (CYCD)
12:26AM 44.1983 6.0450 122° Southeast 508 585 39,000  Level FlightAware ADS-B (LFMD / CEQ)
12:32AM 43.3365 7.9139 123° Southeast 494 568 39,000  Level FlightAware ADS-B (LFMD / CEQ)
12:33AM 43.2853 8.0212 123° Southeast 496 571 39,000  Level FlightAware ADS-B (LFMD / CEQ)
12:34AM 43.2378 8.1203 123° Southeast 498 573 39,000  Level FlightAware ADS-B (LFMD / CEQ)
12:34AM 43.1861 8.2281 123° Southeast 497 572 39,000  Level FlightAware ADS-B (LFMD / CEQ)
12:35AM 43.1404 8.3228 123° Southeast 495 570 39,000  Level FlightAware ADS-B (LFMD / CEQ)
12:36AM 43.0834 8.4408 124° Southeast 493 567 39,000 -560 Level FlightAware ADS-B (LFMD / CEQ)
12:36AM 43.0393 8.5316 124° Southeast 492 566 38,300 -1,275 Descending FlightAware ADS-B (LFMD / CEQ)
12:37AM 42.9824 8.6486 124° Southeast 504 580 37,300 -1,341 Descending FlightAware ADS-B (LFMD / CEQ)
12:38AM 42.9315 8.7524 124° Southeast 498 573 36,400 -1,531 Descending FlightAware ADS-B (LFMD / CEQ)
12:39AM 42.8583 8.9014 124° Southeast 490 564 34,800 -1,851 Descending FlightAware ADS-B (LFMD / CEQ)
12:39AM 42.8122 8.9950 124° Southeast 500 575 33,500 -2,113 Descending FlightAware ADS-B (LFMD / CEQ)
12:40AM 42.7684 9.0836 124° Southeast 494 568 32,300 -1,755 Descending FlightAware ADS-B (LFMD / CEQ)
12:41AM 42.6856 9.2727 107° East 464 534 30,400 -1,695 Descending FlightAware ADS-B (LFMD / CEQ)
12:42AM 42.6637 9.3943 104° East 441 507 28,600 -1,898 Descending FlightAware ADS-B (LFMD / CEQ)
12:43AM 42.6378 9.5361 104° East 433 498 27,300 -453 Descending FlightAware ADS-B (LFMD / CEQ)
12:45AM 42.5508 10.0094 104° East 451 519 27,000 -984 Descending FlightAware ADS-B (LFMD / CEQ)
12:49AM 42.4491 10.5474 105° East 419 482 21,100 -1,735 Descending FlightAware ADS-B (LFMD / CEQ)
12:51AM 42.3441 10.8318 136° Southeast  Level Estimated
12:52AM 42.2821 10.9987 118° Southeast  Level Estimated
12:53AM 42.2345 11.1738 110° East  Level FlightAware Approximate
12:54AM 42.1698 11.3385 119° Southeast  Level Estimated
12:55AM 42.1048 11.5029 122° Southeast  Level Estimated
12:56AM 42.0364 11.6645 120° Southeast  Level FlightAware Approximate
12:57AM 41.9718 11.8288 119° Southeast  Level Estimated
12:58AM 41.9071 11.9928 124° Southeast  Level Estimated
12:59AM 41.8421 12.1565 114° Southeast  Level Estimated
01:00AM 41.8000 12.2333 114° Southeast  Level FlightAware Approximate
01:01AM 41.8045 12.2508 114° Southeast  Level Estimated
01:02AM 41.8045 12.2508 114° Southeast  Level Estimated
01:03AM 41.8045 12.2508 114° Southeast  Level Estimated
01:04AM 41.8045 12.2508 114° Southeast  Level Estimated
01:05AM 41.8045 12.2508 114° Southeast  Level Estimated
01:06AM 41.8045 12.2508 114° Southeast  Level Estimated
01:07AM 41.8045 12.2508 114° Southeast  Level Estimated
01:08AM 41.8045 12.2508 114° Southeast  Level Estimated
01:09AM 41.8045 12.2508 114° Southeast  Level Estimated

Login

Don't have an account? Register now (free) for customized features, flight alerts, and more!